Simultaneous Nadir Overpasses (SNOs) Predictions

Prediction of SNOs between AURA and NPP Satellite Orbit:

Table of predicted SNOs for the next 14.0 days since TLE Epoch: 6/25/2016
Index Date (AURA) Time (AURA) Lat,Lon (AURA) SZA (AURA ) Date (NPP) Time (NPP) Lat,Lon (NPP) SZA (NPP ) Distance(km) Time Diff (sec)
1 06/28/2016 02:51:55 79.30, 32.37 69.99 06/28/2016 02:51:49 79.30, 32.40 69.99 0.48 6
2 06/28/2016 03:41:15 -79.58,-158.12 110.42 06/28/2016 03:42:26 -79.59,-158.01 110.49 2.39 71
3 06/30/2016 18:19:05 -79.04, -21.05 109.45 06/30/2016 18:18:07 -79.03, -21.15 109.39 2.31 58
4 06/30/2016 19:08:22 79.38, 148.76 70.06 06/30/2016 19:08:41 79.38, 148.80 70.04 0.80 19
5 07/03/2016 10:35:32 -79.12, 95.32 109.35 07/03/2016 10:34:59 -79.11, 95.22 109.30 2.17 33
6 07/03/2016
